9hSports utilise des cookies afin d'améliorer votre expérience clients ainsi que son service, en analysant la navigation sur le site. En continuant sur ce site vous acceptez cette utilisation. Pour plus de renseignements consultez notre Politique de cookies. OK

En live: Marató del Montseny

Marató del Montseny

Sant Bernat - Intermig


30
En attente

502
Ont passé

Hommes

# - Posició P.C. - Participant Temps Dorsal

1 - 1 - ALBERT PUJOL GARCIA 01:31:46 4

2 - 2 - FERNANDO LóPEZ DE SAGREDO XICOTA 01:31:50 3

3 - 3 - EUGENI GIL OCAÑA 01:31:52 2

4 - 4 - GUILLEM CAMPANY BASTIDA 01:32:02 406

5 - 5 - ROBERTO GARCIA FERNáNDEZ 01:33:38 6

6 - 6 - ALBERT GARCIA COBOS 01:34:37 365

7 - 7 - MARTIN MAC-GRAGH AMONDARAIN 01:36:50 409

8 - 8 - CARLOS MERLOS GARCIA 01:36:54 318

9 - 9 - XEVI VIDAL SUBINYA 01:36:56 5

10 - 10 - PAKITO PÉREZ BERDUGO 01:37:52 547

11 - 11 - XAVI LLAMAS BOZA 01:39:33 583

12 - 12 - JORDI RIAL COMELLAS 01:39:36 562

13 - 13 - ZAID AID MALEK 01:39:49 1

14 - 14 - AGUSTÍ ISÚN NET 01:39:52 549

15 - 15 - JOSEP VIÑAS SOLER 01:39:55 20

16 - 16 - OSCAR FLORES LOPEZ 01:40:17 343

17 - 17 - PABLO MIGUEL CHORRO HERNANDEZ 01:41:07 481

18 - 18 - SERGI BEL BENEYTO 01:41:11 453

19 - 19 - DAVID FRIAS PEREZ 01:41:33 563

20 - 20 - ERIK GUILLEM STENINGER GARçON 01:41:46 302

21 - 21 - JOAN MANEL VERDAGUER FONT 01:43:18 353

22 - 22 - CARLOS COLLADO RUEDA 01:44:02 491

23 - 23 - JORDI BARRANCOS SOLERA 01:44:15 398

24 - 24 - JOSÉ MANUEL HUMANES FERNÁNDEZ 01:44:18 513

25 - 25 - TONI COLL BERNAT 01:44:22 179

26 - 26 - JAUME MARTI ZULET 01:44:25 400

27 - 27 - JOSEP MARIA REY CARRERAS 01:45:20 269

28 - 28 - ISAM MOUNIR . 01:45:23 85

29 - 29 - ERNESTO MILLAN DE PRADO 01:45:46 145

30 - 30 - DAVID ACEDO RODRIGUEZ 01:45:54 627

31 - 31 - EDUARD BARTRéS ALVAREZ 01:46:03 388

32 - 32 - DANI REDON SOL 01:46:32 243

33 - 33 - JAVIER PONS SINTES 01:46:34 460

34 - 34 - MARC AGUILAR I MOLIST 01:46:39 618

35 - 35 - SERGIO SANTOS GARCIA 01:46:59 487

36 - 36 - VICENT HERRERA COSCOLLANO 01:47:32 428

37 - 37 - FRANCESC ROCABRUNA MARTINEZ 01:47:39 192

38 - 38 - JOSEP PERA VALL-LLOSERA 01:47:43 455

39 - 39 - OMAR GALDON ARRUé 01:48:01 204

40 - 40 - ANDRÉS PÉREZ TISCAR 01:48:10 274

41 - 42 - EDUARDO PASCUAL CUESTA 01:48:52 101

42 - 43 - JORGE ROMERO CRISPIN 01:49:00 550

43 - 44 - GENíS MATEU SALARICH 01:49:03 261

44 - 45 - N GASPAR ESTRELA 01:50:01 212

45 - 46 - MARC MASRAMON BALLUS 01:50:12 507

46 - 47 - IGNASI BASSAS BUJ 01:51:11 590

47 - 49 - CARLOS RODAS RUIZ 01:51:15 390

48 - 50 - DAVID JIMéNEZ JIMéNEZ GARCíA 01:51:18 536

49 - 51 - JUAN JOSE MASGRAU MAIRELES 01:51:21 63

50 - 52 - DAVID TORREJON GONZALEZ 01:51:25 249

51 - 53 - LLUíS CORTADELLAS VILLAGRá 01:51:50 546

52 - 54 - DAVID TERUEL HUGUET 01:52:32 552

53 - 55 - JOSÉ ORTEGA CHUECO 01:53:04 333

54 - 56 - XAVI ABRIL SUAUS 01:53:13 194

55 - 57 - EDUARDO GALáN LOZANO 01:53:18 126

56 - 58 - DíDAC ALMANZA DIAZ 01:53:30 421

57 - 59 - JORDI CABALL REIG 01:54:01 280

58 - 60 - JORDI CASANOVAS ZURANO 01:54:27 394

59 - 61 - CARLOS FERNáNDEZ DE DIOS 01:54:29 59

60 - 62 - EUGENIO SANCHO SANCHO REDONDO 01:54:41 410

61 - 64 - JOAN ANTON SANCHEZ ALVAREZ 01:54:55 566

62 - 65 - MARC LARROYA ESPINOSA 01:55:02 582

63 - 67 - DAVID SANCHEZ DANIEL 01:55:40 412

64 - 68 - LUIS SAN MARTIN TESTÓN 01:55:58 260

65 - 69 - RAMON CARBONELL ISANT 01:56:01 272

66 - 70 - BERNAT RAMON CASTELLà 01:56:04 411

67 - 71 - CARLOS ORRA NUñEZ 01:56:17 303

68 - 72 - JOSEP SANMARTI PUJOL 01:56:48 626

69 - 73 - SERGI RODRIGUEZ MARTOS 01:57:13 369

70 - 74 - ALBERT MUñOZ BUENO 01:57:37 403

71 - 75 - ALEJANDRO GOMEZ BARRIO 01:57:40 183

72 - 76 - MIQUEL VILA DORA 01:57:43 210

73 - 77 - SERGIO CABEZA GONZáLEZ 01:58:17 544

74 - 78 - SAMUEL BUENO GUTIERREZ 01:58:20 515

75 - 79 - CESAR GARRA SORIA 01:58:22 386

76 - 80 - ERIC TORT AYMERICH 01:58:40 444

77 - 81 - JOAN BORRàS TARANCóN 01:58:48 505

78 - 82 - RAFA FERNANDEZ FUNTES 01:59:06 469

79 - 83 - ALBERT MUÑOZ MUÑOZ 01:59:27 641

80 - 84 - ADAM ALONSO PASCUAL 01:59:38 178

81 - 85 - MANUEL PLAZA SIERRA 01:59:40 442

82 - 86 - SERGI GISBERT LOREN 01:59:44 224

83 - 87 - POL CARULLA SOLA 01:59:55 289

84 - 89 - JOSE LUIS GARRIDO BARCENAS 02:00:03 88

85 - 90 - LLUIS BLANES RODRIGUEZ 02:00:06 545

86 - 91 - IVÁN PEREA JIMENEZ 02:00:20 499

87 - 92 - SHAHID ASHRAF ASHRAF 02:00:25 567

88 - 94 - JOAN MANEL JODAR GRIFUL 02:00:31 588

89 - 95 - CESC BALSELLS 02:00:34 141

90 - 96 - SANTI ALCARAZ FERNANDEZ 02:00:38 75

91 - 97 - DANI TOMAS RUBIO 02:00:42 288

92 - 99 - GABRIEL MANZANO VILCHEZ 02:00:49 46

93 - 100 - DANIEL SANCHO MOLINA 02:00:54 293

94 - 101 - MATTEO CANTU . 02:00:58 347

95 - 102 - XAVI BLANCO REYES 02:01:15 207

96 - 103 - SERGI ORTEGO BLANCO 02:01:18 520

97 - 104 - JUAN ANTONIO NAVARRO 02:01:25 106

98 - 105 - ALBERT ROBLEDA FONT 02:01:28 576

99 - 106 - MANU CIURANA YANES 02:01:31 188

100 - 107 - BERNAT MATEU POU 02:01:53 624

101 - 108 - DAVID CRUZATE PALOMO 02:02:07 104

102 - 110 - JORDI VISTOS FAJA 02:02:14 493

103 - 111 - BAREND VAN DROOGE 02:02:18 449

104 - 112 - JOAQUIN BURGOS CIBRIAN 02:02:22 474

105 - 113 - ORIOL RUBIO BELLAVISTA 02:02:26 251

106 - 114 - SALVADOR VALERI SALA 02:02:28 397

107 - 115 - MARCEL JANER FONT 02:02:32 500

108 - 116 - ALBERT MERCADE SERRA 02:02:48 503

109 - 117 - EDUARD AGUILERA SANE 02:03:07 368

110 - 118 - JHONNATHAN DA SILVA 02:03:11 446

111 - 119 - F. XAVIER VICEDO MARZO 02:03:15 319

112 - 120 - BRU FIGUERAS TORRENTE 02:03:22 358

113 - 121 - JUANJO CALVO ORTIZ 02:03:34 175

114 - 122 - JOSEP PUJOL RIUS 02:03:40 49

115 - 124 - JAVIER ABARCA VEGAS 02:03:51 456

116 - 125 - MARC TEIXé VILADOT 02:04:00 7

117 - 126 - JOSE LUIS ARRABAL CANET 02:04:09 327

118 - 127 - JORDI CORDOBA GONZALEZ 02:04:13 501

119 - 128 - ORIOL BRUFAU I TORRENTS 02:04:34 393

120 - 129 - DIEGO GUEVARA CUELLAR 02:04:51 234

121 - 130 - SALVADOR FRENICHE GARCIA 02:04:57 235

122 - 131 - ARNAU RUBIÓ RUART 02:05:07 352

123 - 132 - RUBEN VICENTE PUERTAS 02:05:13 523

124 - 133 - AGUSTIN CACERES HERNANDEZ 02:05:22 221

125 - 134 - NOEL FORNE VALENCIA 02:05:27 625

126 - 135 - FRANCESC PANISELLO MAS 02:05:31 603

127 - 136 - MANUEL ANGEL GUTIéRREZ GALIOT DE 02:05:38 282

128 - 137 - EDUARDO MáRMOL MARCO 02:05:42 511

129 - 138 - ALBERT BARO RIBES 02:05:47 312

130 - 139 - JOSE ARANDA FERNáNDEZ 02:06:00 130

131 - 140 - ROGER SOLANAS JANE 02:06:10 525

132 - 141 - XAVIER MENéNDEZ OLCINA 02:06:15 423

133 - 142 - EDUARDO SANCHEZ-MONGE ALEÑAR 02:06:19 108

134 - 143 - JULIO MíNGUEZ MORENO 02:06:24 399

135 - 144 - OSCAR MORAL HIDALGO 02:06:29 120

136 - 145 - FRANCESC LLUPIà CAPARRóS 02:06:33 574

137 - 146 - ANDREU ESTEVE TORRES 02:06:38 578

138 - 147 - IVAN ARRUFAT CID 02:06:42 122

139 - 148 - CHARLY RECIO GALOBARDES 02:06:46 596

140 - 149 - ISRAEL REYES GARCIA 02:06:50 252

141 - 150 - PEP ZAMORA BURGUES 02:06:55 244

142 - 151 - NIC BOLIART ROMERO 02:07:01 458

143 - 152 - OSCAR DIAZ ALTABA 02:07:05 378

144 - 153 - MARC ARMENGOL RABAL 02:07:09 23

145 - 154 - PEDRO FELIP BELENGUER 02:07:17 22

146 - 155 - RICARD SANMARTIN MASES 02:07:23 565

147 - 156 - JORDI POVEDANO RIVERA 02:07:36 381

148 - 158 - DAVID ESTRELLA SALAGRAN 02:07:53 475

149 - 159 - JORDI MAYANS BUENO 02:07:57 479

150 - 160 - CARLOS ESPAñA GADEA 02:08:01 215

151 - 161 - CARLOS ARRUFAT BARTOLOME 02:08:05 43

152 - 162 - JOAN CASACUBERTA MASFERRER 02:08:09 529

153 - 163 - JOAN JOSEP QUERLT GALLEN 02:08:21 450

154 - 165 - MARTIN CAñELLAS AMER 02:08:42 32

155 - 166 - JUAN JAVIER GARCíA MARTíNEZ 02:08:55 14

156 - 167 - DIDAC VIÑALLONGA PUNSOLA 02:08:59 265

157 - 168 - DAVID OCARIZ FERREIRO 02:09:03 257

158 - 169 - JORDI RIBAS SERRA 02:09:07 537

159 - 171 - FERNANDO BARCOS NAVARRO 02:09:18 275

160 - 172 - MARC CRUSET SEGURA 02:09:22 506

161 - 173 - ALVARO URBANO MARTIN 02:09:27 604

162 - 174 - JOSE RUIZ MOLINA 02:09:33 489

163 - 175 - SERGIO RODRIGUEZ HIDALGO 02:09:43 161

164 - 176 - JOAN RAMON PROFUMO VENTURA 02:09:47 47

165 - 177 - JOEL JOLI OBIOLS 02:09:53 402

166 - 178 - PACO ALCAZAR FIGUEROA 02:09:59 103

167 - 179 - FABIO MORBINI 02:10:07 452

168 - 180 - CARLOS BENITEZ ANDREU 02:10:10 470

169 - 181 - DANIEL ROVIRA ESPINOSA 02:10:15 62

170 - 182 - DANIEL ALMONACID VICTORIANO 02:10:26 92

171 - 184 - JAUME FONTANET MASERO 02:10:35 613

172 - 186 - JOAN BROS MENDOZA 02:10:46 556

173 - 187 - JUANMI PIQUERAS CALERO 02:10:51 155

174 - 188 - DOMINGO RUBIO GRANDE 02:10:56 600

175 - 189 - IVAN DIAZ PONS 02:11:02 45

176 - 190 - TONI JOFRE MARIN 02:11:07 494

177 - 191 - JOSEP GIL SEGú 02:11:11 617

178 - 192 - PERE PONT PANÉ 02:11:17 454

179 - 193 - JOAN GARRIGA FERRER 02:11:52 111

180 - 194 - ROBERTO NICOLAS FERNANDEZ 02:11:58 379

181 - 195 - CARLES TRIGINER ROIG 02:12:03 245

182 - 196 - JOSEP ALCAIDE DAVIA 02:12:09 466

183 - 197 - CELIO BELLUCCO CAMILO 02:12:14 468

184 - 198 - MARC HERNANDEZ GONZáLEZ 02:12:18 41

185 - 199 - JORDI VISSI GARCIA 02:12:25 419

186 - 200 - KENICHI HANASAKI 02:12:31 586

187 - 201 - QUIM ARTIZâ MANRESA 02:12:35 74

188 - 202 - JAVIER ROMERO MARCOS 02:12:41 517

189 - 203 - DAVID DURAN CASANOVA 02:12:57 462

190 - 204 - JOAN FORCADA BULBENA 02:13:07 220

191 - 205 - TONI LóPEZ MARíN 02:13:14 385

192 - 206 - SERGI SERRA MONTASELL 02:13:20 100

193 - 207 - VICENç VIVó MARTí 02:13:26 127

194 - 208 - JORDI PUIG TRAMUNT 02:13:27 538

195 - 210 - ISRAEL MEDALLA HERRERA 02:13:34 54

196 - 211 - CARLES SOLIVERA RETCHAS 02:13:38 448

197 - 212 - CARLES ADMETLLA SALVATELLA 02:13:42 79

198 - 213 - ADRIA CARCASSONA GAY 02:13:46 473

199 - 214 - PITU MORON HERRADOR 02:13:48 219

200 - 215 - ENRIC MIRó BARBA 02:13:53 250

201 - 216 - JUAN OTERO AGUILERA 02:13:59 357

202 - 217 - ALBERTO ROCA VALERO 02:14:00 55

203 - 219 - JORDI AGUSTINA REYES 02:14:12 372

204 - 220 - VICTOR VALDERRAMA LEON 02:14:18 564

205 - 221 - OSKAR PUERTA REDONDO 02:14:19 585

206 - 222 - FRANCESC XAVIER MIQUEL I CASTAñER 02:14:25 107

207 - 223 - JOSE LUIS PARRA GARCIA 02:14:32 490

208 - 224 - JONATHAN ANTONI CIERCO 02:14:35 332

209 - 225 - ALEX PUEYO 02:15:07 198

210 - 226 - BERNARDO CARRERA GIRALDEZ 02:15:12 441

211 - 227 - DIDIER GAY 02:15:21 206

212 - 228 - ALBERT SANS SOLER 02:15:25 270

213 - 229 - MARIO MURCIANO MARCO 02:15:30 471

214 - 230 - EDGAR GAIG DIEGUEZ 02:15:34 237

215 - 231 - ALVARO FILLAT MURT 02:15:40 514

216 - 232 - ORIOL PISOS TABERNER 02:15:45 497

217 - 233 - MIQUEL CASAS JULVE 02:15:51 389

218 - 234 - MANUEL ORTEGA GARCIA 02:15:57 283

219 - 236 - DANI TORRES MARTIN 02:16:09 324

220 - 237 - ARNAU BARBA MARTíNEZ 02:16:14 325

221 - 239 - JORDI OLIVE FERNANDEZ 02:16:23 114

222 - 240 - MIGUEL ÁNGEL PEREZ RUIZ 02:16:31 12

223 - 241 - JUAN CARLOS ROMERO NAVARRO 02:16:35 11

224 - 242 - OSCAR CALDERÓN GONZÁLEZ 02:16:39 10

225 - 243 - SERGIO CHACON CORVO CHACON CORVO 02:16:45 168

226 - 244 - IGNACIO GUERRA GONZÁLEZ 02:16:48 638

227 - 246 - CRISTIAN LLACUNA BELTRAN 02:16:55 426

228 - 248 - AGUSTIN FABREGA BRANCHAT 02:17:03 510

229 - 250 - SERGI GORDON NAVARRO 02:17:10 134

230 - 251 - CARLOS SANTANDER SERRANO 02:17:13 68

231 - 252 - JOSé MANUEL SOLA PéREZ 02:17:17 561

232 - 253 - TONI ORTEGA LOPEZ 02:17:22 610

233 - 254 - DAVID SERRAHIMA I ARTIGA 02:17:26 152

234 - 255 - MAURICIO ALTARRIBA PALOMARES 02:17:30 599

235 - 256 - JERONI SABATE SANCHEZ 02:17:34 213

236 - 257 - ROGER BADIA PUIGGALI 02:17:38 297

237 - 258 - RAUL GóNGORA MARTIN 02:17:43 429

238 - 259 - RAUL MATO GALAN 02:17:48 572

239 - 261 - JOSE SANCHIS LóPEZ 02:18:00 321

240 - 262 - RAMON VAZQUEZ MIRANDA 02:18:06 311

241 - 263 - JORDI GARRIDO SANCHEZ 02:18:11 239

242 - 264 - ISRAEL MATAS GONZáLEZ 02:18:17 484

243 - 265 - FRAN MORENO GUTIERREZ 02:18:22 336

244 - 266 - ALEX VALLS TRABAL 02:18:27 439

245 - 267 - ENRIC MATAS BONJORN 02:18:31 535

246 - 268 - MIQUEL CODONY BOVER 02:18:36 374

247 - 269 - JOSEP BOSCH PALAU 02:18:41 391

248 - 270 - JOSEP MARIA QUERAL I RIPOLLéS 02:18:45 339

249 - 271 - VíCTOR PéREZ BLASCO 02:18:50 253

250 - 272 - IGNASI CUSÓ FERRÉ 02:18:57 84

251 - 274 - POL MAS LLOPART 02:19:07 415

252 - 275 - MARC COLLADO BELLA 02:19:12 414

253 - 276 - CARLES PORRAS DOMENECH 02:19:16 340

254 - 277 - JAIME RAMIREZ ARAUJO 02:19:22 342

255 - 278 - PERE ARTIGAS GARCIA 02:19:28 91

256 - 279 - JOSEP M. BASTER ROVIRALTA 02:19:32 438

257 - 280 - DAVID VIñAS MARTíN 02:19:36 628

258 - 282 - JOAN RIUS PIFERRER 02:19:42 516

259 - 283 - DAVID POSTIGUILLO GALA 02:19:44 36

260 - 284 - PERE JIMENEZ RUIZ 02:19:49 125

261 - 285 - SERGIO RUIZ OSORIO 02:19:56 518

262 - 287 - EDUARD NEIRA JORBA 02:20:04 58

263 - 288 - FELIX UCEDA PEREA 02:20:08 371

264 - 289 - DANIEL MARTíNEZ LORENTE 02:20:13 193

265 - 291 - SANTI JIMENEZ RUIZ 02:20:26 240

266 - 292 - LUIS LIMPO GONZALO 02:20:35 307

267 - 293 - GORGO GONGORA JIMENEZ 02:20:41 616

268 - 294 - JORDI MORENO VILLANUEVA 02:20:46 113

269 - 296 - XAVI GUTIERREZ PEREZ-MILA 02:21:06 205

270 - 297 - RAMON VARGAS AGUILERA 02:21:13 482

271 - 298 - MARIUS RUSU 02:21:18 173

272 - 300 - VICENç CLARENA RIERA 02:21:39 579

273 - 301 - DAI KONDO 02:21:43 598

274 - 302 - LUIS PéREZ GIL 02:21:50 159

275 - 303 - EDUARD MIRALLES JOVE 02:21:54 480

276 - 304 - JORDI REY DE MAYA 02:22:00 405

277 - 305 - FRANCESC LORENTE JIMENEZ 02:22:24 495

278 - 306 - LLORENÇ ABAD ARMENDARES 02:22:30 422

279 - 307 - PER ERIKSSON ERIKSSON 02:22:37 9

280 - 308 - JOSé MARíA MARTINEZ 02:22:55 197

281 - 309 - JORDI BOSQUE COLLS 02:22:59 110

282 - 311 - TONI VILA CARQUéS 02:23:09 633

283 - 312 - JOAN GELABERT JUANOLA 02:23:18 425

284 - 313 - JAVIER CHACóN RESINA 02:23:23 434

285 - 314 - DAVID MORENO BOLAñOS 02:23:35 643

286 - 315 - CARLES CAPARROS GIBERNAU 02:23:38 435

287 - 316 - MANEL VAZQUEZ CLEMENTE 02:23:44 387

288 - 317 - JORDI REYES SOLA 02:23:51 635

289 - 318 - RICARD ALVAREZ IGLESIAS 02:23:58 634

290 - 319 - ALBERT RAMIREZ GONZáLEZ 02:24:04 636

291 - 320 - JOSE ANTONIO VAZQUEZ FERNANDEZ 02:24:08 154

292 - 322 - JUAN CARLOS CAZORLA BARBUDO 02:24:20 407

293 - 323 - SIMóN MECA ARENAS 02:24:28 440

294 - 324 - JOAN LLOPART MORAGAS 02:24:32 162

295 - 326 - QUIQUE DE LA HOZ GONZáLEZ 02:24:42 531

296 - 327 - SERGI VIVES MELENDEZ 02:24:47 25

297 - 328 - SERGI VILLENA ROMERO 02:24:52 67

298 - 329 - JOSE RODRíGUEZ TRIBALDOS 02:24:57 472

299 - 330 - MARC ANDREU PEDROSA 02:25:01 65

300 - 331 - JUAN GABRIEL NAVARRO GARCíA 02:25:10 61

301 - 332 - ORIOL BAIXAS MORALES 02:25:14 230

302 - 333 - JOSE ANGEL LOPEZ FREIJE 02:25:19 50

303 - 334 - XAVIER FREIXAS MORADELL 02:25:23 64

304 - 335 - FELIX LENGUAS 02:25:28 33

305 - 336 - LLORENç REIXACH CRUZ 02:25:45 467

306 - 338 - ALBERTO ROSALES CORDERO 02:26:00 94

307 - 339 - JORDI HIGUERUELO 02:26:06 53

308 - 340 - MINGO GALLARDO GARCíA 02:26:15 48

309 - 341 - MARC SEUMA MESAS 02:26:20 95

310 - 342 - GERMAN BAQUEDANO SANCHEZ 02:26:25 223

311 - 343 - CARLOS PEREZ MARCHENA 02:26:36 568

312 - 344 - ALEX VIDAL 02:26:40 445

313 - 345 - JUAN BEJAR CAZORLA 02:26:45 278

314 - 346 - ALFONSO GAñAN MARTINEZ 02:26:50 123

315 - 347 - JORDI MARTINEZ MAZCUñAN 02:26:55 52

316 - 348 - DAVID COUSIN MARTí 02:27:00 322

317 - 349 - FERRAN SOLER SEBASTIà 02:27:04 38

318 - 350 - IGNASI GIL PALACIOS 02:27:09 190

319 - 351 - OSCAR ANDREU OLMO 02:27:14 86

320 - 352 - JORDI GOMEZ COLL 02:27:19 326

321 - 353 - UNAI ARTETA CASTELAR 02:27:25 51

322 - 354 - TONI MARQUEZ JIMENEZ 02:27:29 180

323 - 355 - ALBERTO ALONSO HERNANDEZ 02:27:34 112

324 - 356 - CESAR OBEA CASTILLO 02:27:39 560

325 - 357 - CHRISTIAN JAMMES 02:27:46 24

326 - 359 - CLAUDIO LEONEL GALATI 02:28:00 267

327 - 360 - JAVIER MORENO OLMOS 02:28:08 60

328 - 361 - ALVARO RODRIGUEZ 02:28:17 42

329 - 362 - XAVI PINTO CERVERA 02:28:23 185

330 - 363 - MANUEL MATA GARCíA 02:28:29 437

331 - 364 - DAVID JIMENEZ RICO 02:28:33 451

332 - 365 - JAVI GAT GARCíA 02:28:37 539

333 - 366 - JOAN MARGALEF ESCALA 02:28:42 246

334 - 369 - FRANCSCO JAVIER MUñOZ-TORRERO CALDERON 02:28:53 285

335 - 370 - ELOI VILA CULLARES 02:29:02 614

336 - 371 - ERIC PASTOR MASANA 02:29:07 615

337 - 372 - ADRIà BERNúS DOMINGUEZ 02:29:12 569

338 - 373 - JOEL ORMENO 02:29:17 363

339 - 374 - BRUNO MANANT 02:29:21 377

340 - 375 - JORDI ESTEBAN ZABALA 02:29:26 330

341 - 376 - DIONISIO MAñAS ALBA 02:29:31 172

342 - 378 - JORDI RASCON SOTO 02:29:56 191

343 - 380 - MANEL BERBEL ACOSTA 02:30:09 337

344 - 384 - JORDI LUZ FOGLIETTI 02:30:25 432

345 - 386 - SANTI LOZANO SALA 02:30:36 360

346 - 387 - ISMAEL RUIZ VALLE 02:30:42 629

347 - 388 - DAVID FERNANDEZ ESPINOSA 02:30:59 592

348 - 389 - JUAN MANUEL LóPEZ MARFIL 02:31:02 121

349 - 390 - MARC PEREZ REDONDO 02:31:11 530

350 - 391 - ALBERTO ARNAIZ . 02:31:22 361

351 - 392 - PEP NIETO CASTELLÓ 02:31:31 8

352 - 393 - MARC COMA JURADO 02:31:35 320

353 - 394 - JOSEP SANFELIU PARRADO 02:31:42 256

354 - 395 - PABLO CERVERA ROUX 02:31:47 602

355 - 396 - BERNAT FARRES BORDA 02:31:53 543

356 - 403 - JORGE GARCIA RODRIGUEZ 02:32:25 119

357 - 404 - SALVADOR DE MOYA RIBERA 02:32:29 465

358 - 406 - VíCTOR LóPEZ MARTíNEZ 02:32:43 498

359 - 407 - JESúS OSUNA CAPITáN 02:32:48 631

360 - 409 - DAVID GIMENEZ LOPEZ 02:33:07 217

361 - 411 - LLUÍS ARANDA FERNANDEZ 02:33:23 315

362 - 412 - RAMON CODINA MASONS 02:33:30 553

363 - 413 - TONI FERRéS RUSINéS 02:33:36 276

364 - 417 - DANIEL RODRIGUEZ RUIZ 02:33:45 461

365 - 418 - MARCOS MEDINA DIAZ DE LOPEZ 02:33:49 208

366 - 419 - JOAN PRATS MORILLA 02:33:53 341

367 - 420 - MATIAS AYUSO MARTINEZ 02:33:57 308

368 - 422 - ERIK PéREZ MUñOZ 02:34:07 90

369 - 423 - ALFRED FERRéS RUSINéS 02:34:12 277

370 - 424 - JUAN JIMENEZ AIZA 02:34:43 226

371 - 425 - JOSE ANTONIO GONZALEZ ARIZA 02:34:49 146

372 - 426 - OSCAR LECUONA 02:34:55 310

373 - 427 - VICTOR MURIA BADIA 02:35:00 248

374 - 428 - NÉSTOR VILELLA BARBA 02:35:14 430

375 - 429 - SERGI ROVIRA PéREZ 02:35:19 483

376 - 430 - JORDI GÜERA TORNAMORELL 02:35:24 413

377 - 432 - RICARD MELERO QUIñONERO 02:35:41 362

378 - 433 - ALVARO DE CABO TEJERINA 02:35:45 477

379 - 434 - MIQUEL PUIGGRÒS CLANCHET 02:35:54 570

380 - 435 - DANI VILAR ROQUET 02:36:06 443

381 - 436 - XAVIER COROMINAS NORIA 02:36:09 151

382 - 438 - ROBERTO VELEZ 02:36:25 128

383 - 439 - DAVID BARROSO CASAPONSA 02:36:29 486

384 - 440 - IÑAKI MALED GARCIA 02:36:34 156

385 - 441 - CARLES FERRúS PIQUET 02:36:39 72

386 - 442 - JORDI BALIUS FORT 02:36:44 488

387 - 444 - MANEL AGUILERA LÓPEZ 02:36:54 131

388 - 449 - JOSé MANUEL BLANCO ZAMBRANO 02:37:43 589

389 - 452 - ANTONIO RAMOS TORRICO 02:38:22 117

390 - 454 - YUNIEL CASTRO GONZáLEZ 02:38:44 262

391 - 457 - RUBEN CERCOS TRIVIñO 02:39:16 542

392 - 458 - DAVID RUIZ CASTRO 02:39:26 144

393 - 459 - MANUEL ARROYO NAVARRO 02:39:27 345

394 - 460 - MIQUEL ARNAL ESPINAL 02:39:36 57

395 - 463 - GERARD VILELLA LOPEZ 02:39:48 176

396 - 466 - RAUL ANGUITA ONDOñO 02:39:56 554

397 - 467 - ANTONI GARCIA COLL 02:39:58 640

398 - 468 - JORDI COMPANY FERRAGUT 02:39:58 201

399 - 470 - FERRAN MARMANEU PORCAR 02:40:10 13

400 - 472 - NELSON GUSTAVO ROJAS OTAROLA 02:40:20 527

401 - 473 - AGUSTIN MARTINEZ HERNANDEZ 02:40:24 187

402 - 475 - ARTUR SERRANO MARTINEZ 02:40:31 30

403 - 477 - SILVERIO MARIN JULIAN 02:40:44 31

404 - 478 - ANTONIO ATIENZA MARTíNEZ 02:40:47 142

405 - 479 - BIEL SALAS FERRAGUT 02:41:03 181

406 - 483 - DAVID ROA REBOLLO 02:41:25 149

407 - 486 - PEDRO BENITEZ ORTIZ 02:41:45 184

408 - 488 - SANTIAGO ROYO GINER 02:42:01 630

409 - 491 - DAVID FERNANDEZ GARCíA 02:42:19 609

410 - 492 - JOSEP CASTAñé 02:42:25 370

411 - 495 - DíDAC ESPINOSA BERNIS 02:42:42 364

412 - 498 - MIQUEL GARCIA SAIZ 02:44:57 209

413 - 503 - FRANCISCO ALONSO 02:45:25 160

414 - 507 - LLUíS VERA VINARDELL 02:45:46 169

415 - 509 - DAVID PEñARANDA DURAN 02:45:53 153

416 - 513 - FRANC LLUIS GIRÓ 02:46:57 163

417 - 524 - JUAN CARLOS REBOLO VALIñO 02:48:48 485

418 - 544 - JAVIER BRETóN BLAS 03:02:16 21

419 - 545 - JOSE ANTONIO FERNáNDEZ ROS 03:02:20 81

420 - 552 - KEN VUI YAP 03:11:18 87

Femmes

# - Posició P.C. - Participant Temps Dorsal

1 - 48 - INGRID RUIZ SáNCHEZ 01:51:13 611

2 - 93 - AMANDA MARTIN 02:00:28 359

3 - 98 - MARTA MUIXí CASALDàLIGA 02:00:45 580

4 - 123 - MARTA SEGURA RIUS 02:03:43 259

5 - 157 - LORENA RENAU SANCHEZ 02:07:49 383

6 - 164 - MAITE URRUTIA ALONSO 02:08:37 528

7 - 170 - ISABEL PELEGRINA BARREIRO 02:09:12 504

8 - 185 - Mª CARMEN SáNCHEZ IZQUIERDO 02:10:42 328

9 - 209 - MLLUISA RUIZ ADELL 02:13:31 508

10 - 238 - MONTSERRAT ELIAS TRIVIÑO 02:16:18 80

11 - 245 - SARA LAIA GALVANY ROSELLó 02:16:51 496

12 - 249 - SONIA LABRADOR SIERRA 02:17:07 418

13 - 273 - M. EUGENIA MUNTÉ MATEU MUNTé MATEU 02:19:01 584

14 - 281 - NúRIA RUBIO BELLAVISTA 02:19:40 335

15 - 286 - EVA MARIA TAPIA LUQUE 02:20:00 334

16 - 290 - DOLORES MARTíN TORRES 02:20:20 581

17 - 295 - ÀNGELA GARCIA FEMENIA 02:20:50 551

18 - 299 - MARIE KLINDEROVA 02:21:25 595

19 - 310 - SARA SANZ VILLARES 02:23:04 366

20 - 321 - AINARA LARREA IDIAZABAL 02:24:14 382

21 - 325 - PILI UREÑA ANTOLIN 02:24:37 509

22 - 358 - LAURA PLANES SAURí 02:27:51 70

23 - 367 - AUBERT DORIANE 02:28:46 301

24 - 379 - MARTA PUJOL ARMENGOL 02:30:04 29

25 - 385 - KARINE GIRAUX 02:30:31 354

26 - 397 - ANA PéREZ-VICO 02:31:59 26

27 - 414 - ISABEL ABRIL CENTENO 02:33:37 533

28 - 415 - SUSANA SANCHEZ SANCHEZ 02:33:37 227

29 - 421 - ESTHER JO BASQUENS 02:34:02 309

30 - 445 - ANA PASCUAL HOYAS 02:37:27 78

31 - 446 - MIRIAM FLORES AYALA 02:37:31 132

32 - 451 - SILVIA PALLARES AREVALO 02:38:18 255

33 - 453 - MYRIAM RAMOS CASTELL 02:38:27 116

34 - 456 - EVA PAGESPETIT CUNILL 02:38:54 606

35 - 461 - MIRIAM PASCUAL ABIA 02:39:43 147

36 - 462 - SONIA JIMéNEZ ZAMORA 02:39:45 143

37 - 464 - MóNICA LEANDRO GOZALBO 02:39:52 16

38 - 471 - ROSI PEREZ BELEÑA 02:40:15 18

39 - 485 - MóNICA DOMíNGUEZ HERNANDEZ 02:41:37 186

40 - 487 - MIREIA MUñOZ MAS 02:41:54 83

41 - 490 - CARMEN RODRIGUEZ JIMENEZ 02:42:12 591

42 - 528 - ELISENDA BRASAL RAFAEL 02:52:15 612

43 - 536 - CRISTINA PUIG COLOMER 02:55:20 555

44 - 547 - GLADISVEL MORENO DE LA CRUZ 03:05:07 77

45 - 551 - MARI BERNET BUENDIA 03:06:12 573

46 - 553 - MARION HOFMANN 03:11:22 346

Publicité